THOR ABLESTAR DEB, 125

Orbit data source: Space-Track

THOR ABLESTAR DEB, 125 is space debris in LEO originally from a launch on Thu, 29 Jun 1961 UTC launched from the Air Force Eastern Test Range (AFETR). Debris objects in space refer to the collection of defunct objects orbiting the Earth. Examples of debris include non-operational satellites, rocket bodies, and fragments generated from explosions, collisions, or faulty payload assembly.

Loading next visibility...
Identifier
125, 1961-015K
Orbit
LEO
Country
Flag of USUS
Related business
Manufacturer
Unknown
Mission
Spacecraft
Bus & Motor
Unknown
Mass
Unknown
Launch date (UTC)
1961-06-29 (65 years ago)
Launch vehicle
Unknown
Launch site
Air Force Eastern Test Range (AFETR)
Object type
Payload
Rocket body
Debris
Shape & HBR
Unknown shape, 0.1 m
Radar Cross Section
Medium (>0.1 m² and <1 m²)

Expand to show TLE details & history
Last TLE update: 3 days ago

TLE from 3 days ago
0 THOR ABLESTAR DEB
1 00125U 61015K   26170.70370090  .00000313  00000-0  22690-3 0  9992
2 00125  66.8762 282.9493 0066763  59.8406 300.9274 14.07705693317617
Epoch: 2026-06-19T16:53Z
TLE epoch observation values (Epoch: 2026-06-19T16:53:19.757Z)
Latitude
-0.00007°
Longitude
121.68809°
Altitude
844.707 km
Speed
7.443 km/s
True Right ascension
18h 51m 47s
True Declination
0° 00' 00"
Sunlit
Object was in full shadow at epoch
Visualization orbit readout
Latitude
Unknown
Longitude
Unknown
Altitude
Unknown
Speed
Unknown
Apparent Right ascension
Unknown
Apparent Declination
Unknown
Sunlit
N/A
Visualization observer readout
Local Sidereal Time
12:35:31
Azimuth
Unknown
Elevation
Unknown
Doppler factor
Unknown
Orbital elements
Apogee altitude
913.966 km
Perigee altitude
817.244 km
Semi-major axis
7,243.742 km
Eccentricity
0.00668
Inclination
66.8762°
RAAN
282.9493°
Arg. of periapsis
59.8406°
True anomaly
300.26832°
Mean anomaly
300.9274°
Eccentric anomaly
300.59814°
Mean motion
3.52045 °/min
Orbital period
102.26 mins
BSTAR
0.0002269
Loading maneuver chart data...
Computing Atmospheric mass density...

Documentation

Showing up to 5 results
|